Powrót do katalogu

PSLV R/B

AktywnySSO
NORAD 25759·ROCKET BODY·🇮🇳 India

Wystrzelony May 26, 1999 z Satish Dhawan Space Centre

Loading…

Następne Przeloty (najbliższe 24 godziny)

TLE

ŚwieżeSource: Space-Track

Epoka: Sep 14, 2026, 08:07 UTC

1 25759U 99029D   26257.33840532  .00000126  00000-0  40045-4 0  9993
2 25759  98.6070 295.7366 0026150 339.3376  20.6761 14.55870016448236

Śledź PSLV R/B w czasie rzeczywistym z AllMySat

Download on the App Store